Ellington Field, TX

4:43 PM CDT on March 25, 2017 (GMT -0500)
Ellington

Weather History for KEFD - September, 2013

Change the Weather History Date:

Sunday, September 8, 2013

  Actual Average Record
Temperature  
Mean Temperature 85 °F -  
Max Temperature 93 °F 88 °F 98 °F (1999)
Min Temperature 77 °F 72 °F 64 °F (2011)
Cooling Degree Days 20    
Growing Degree Days 35 (Base 50)    
Moisture  
Dew Point 75 °F    
Average Humidity 77    
Maximum Humidity 94    
Minimum Humidity 49    
Precipitation  
Precipitation 0.00 in - - ()
Sea Level Pressure  
Sea Level Pressure 29.96 in    
Wind  
Wind Speed 4 mph (ESE)    
Max Wind Speed 12 mph    
Max Gust Speed -    
Visibility 10 miles    
Events Rain    
Averages and records for this station are not official NWS values.
T = Trace of Precipitation, MM = Missing Value Source: NWS Daily Summary

Daily Weather History Graph

Daily Weather History Graph

Search for Another Location

Airport or City:

Trip Planner

Search our weather history database for the weather conditions in past years. The results will help you decide how hot, cold, wet, or windy it might be!

Date:

Astronomy

Sep. 08, 2013 Rise Set
Actual Time 7:01 AM CDT 7:34 PM CDT
Civil Twilight 6:37 AM CDT 7:58 PM CDT
Nautical Twilight 6:09 AM CDT 8:26 PM CDT
Astronomical Twilight 5:40 AM CDT 8:54 PM CDT
Moon 10:01 AM CDT (9/8) 9:30 PM CDT (9/8)
Length of Visible Light 13h 20m
Length of Day
12h 32m
Waxing Crescent, 11% of the Moon is Illuminated
Sep 8
Waxing Crescent
Sep 12
First Quarter
Sep 19
Full
Sep 26
Last Quarter
Oct 4
New

Hourly Weather History & Observations

Time (CDT) Temp. Heat Index Dew Point Humidity Pressure Visibility Wind Dir Wind Speed Gust Speed Precip Events Conditions
12:50 AM 78.8 °F - 77.0 °F 94% 29.95 in 10.0 mi NNE 3.5 mph - N/A   Scattered Clouds
1:50 AM 78.8 °F - 77.0 °F 94% 29.95 in 10.0 mi Calm Calm - N/A   Scattered Clouds
2:50 AM 78.8 °F - 77.0 °F 94% 29.95 in 10.0 mi Calm Calm - N/A   Scattered Clouds
4:50 AM 78.8 °F - 77.0 °F 94% 29.95 in 10.0 mi Calm Calm - N/A   Mostly Cloudy
6:50 AM 78.8 °F - 77.0 °F 94% 29.96 in 10.0 mi NE 5.8 mph - N/A   Mostly Cloudy
7:50 AM 77.0 °F - 75.2 °F 94% 29.98 in 10.0 mi Calm Calm - N/A   Mostly Cloudy
8:50 AM 80.6 °F 87.1 °F 77.0 °F 89% 29.99 in 10.0 mi NE 6.9 mph - N/A   Mostly Cloudy
9:50 AM 82.4 °F 90.9 °F 77.0 °F 84% 29.98 in 10.0 mi NNE 4.6 mph - N/A   Mostly Cloudy
10:50 AM 82.4 °F 90.9 °F 77.0 °F 84% 30.00 in 10.0 mi South 9.2 mph - N/A   Mostly Cloudy
11:15 AM 82.4 °F 90.9 °F 77.0 °F 84% 30.00 in 5.0 mi South 5.8 mph - N/A Rain Rain Showers
11:50 AM 82.4 °F 90.9 °F 77.0 °F 84% 30.00 in 10.0 mi Calm Calm - N/A   Mostly Cloudy
12:50 PM 86.0 °F 96.9 °F 77.0 °F 74% 29.98 in 10.0 mi East 9.2 mph - N/A   Mostly Cloudy
1:50 PM 89.6 °F 99.8 °F 75.2 °F 62% 29.96 in 10.0 mi ESE 8.1 mph - N/A   Mostly Cloudy
2:50 PM 91.4 °F 102.5 °F 75.2 °F 59% 29.96 in 10.0 mi SE 11.5 mph - N/A   Mostly Cloudy
3:50 PM 93.2 °F 102.4 °F 73.4 °F 52% 29.93 in 10.0 mi SE 11.5 mph - N/A   Mostly Cloudy
4:50 PM 91.4 °F 102.5 °F 75.2 °F 59% 29.93 in 10.0 mi ESE 10.4 mph - N/A   Mostly Cloudy
5:50 PM 91.4 °F 96.8 °F 69.8 °F 49% 29.92 in 10.0 mi ESE 9.2 mph - N/A   Mostly Cloudy
6:50 PM 87.8 °F 93.8 °F 71.6 °F 58% 29.94 in 10.0 mi ESE 8.1 mph - N/A   Scattered Clouds
7:50 PM 84.2 °F 89.6 °F 71.6 °F 66% 29.95 in 10.0 mi SE 8.1 mph - N/A   Mostly Cloudy
8:50 PM 82.4 °F 87.2 °F 71.6 °F 70% 29.95 in 10.0 mi SE 4.6 mph - N/A   Mostly Cloudy
9:50 PM 80.6 °F 84.6 °F 71.6 °F 74% 29.94 in 10.0 mi South 3.5 mph - N/A   Mostly Cloudy
10:50 PM 78.8 °F - 71.6 °F 78% 29.94 in 10.0 mi Calm Calm - N/A   Scattered Clouds
11:50 PM 78.8 °F - 71.6 °F 78% 29.94 in 10.0 mi Calm Calm - N/A   Scattered Clouds